174  
NZUS59 KLOT 051008  
HRRLOT  
 
CHICAGO AREA WEATHER ROUNDUP  
NATIONAL WEATHER SERVICE CHICAGO/ROMEOVILLE IL  
400 AM CST FRI MAR 05 2021  
 
NOTE: "FAIR" INDICATES FEW OR NO CLOUDS BELOW 12,000 FEET WITH NO  
SIGNIFICANT WEATHER AND/OR OBSTRUCTIONS TO VISIBILITY.  
 
* THESE STATIONS ARE NOT UNDER NWS QUALITY CONTROL. THEY ALSO MAY NOT  
REPORT WEATHER SUCH AS PRECIPITATION OR FOG.  
 
ILZ005-006-012>014-019>023-051100-  
NORTHEAST ILLINOIS  
 
CITY SKY/WX TMP DP RH WIND PRES REMARKS  
OHARE CLEAR 26 20 77 W5 30.35R WCI 20  
MIDWAY CLEAR 26 19 74 W5 30.35S WCI 20  
AURORA CLEAR 22 18 85 CALM 30.36S  
LANSING* CLEAR 25 23 93 CALM 30.36S  
JOLIET* CLEAR 22 20 92 CALM 30.37S  
WAUKEGAN CLEAR 23 19 85 NW6 30.36R WCI 16  
DUPAGE AIRPORT CLEAR 23 18 81 CALM 30.35S  
WHEELING CLEAR 24 20 84 NW3 30.37S  
KANKAKEE* CLEAR 26 24 95 CALM 30.37S  
MORRIS* CLEAR 27 25 91 NE3 30.36S  
LEWIS AIRPORT* CLEAR 24 22 91 N3 30.37R  
NORTHERLY ISL* N/A 32 21 64 N5 N/A WCI 27  

 
 
WIZ051-052-058>065-066-070>072-051100-  
SOUTHEAST WISCONSIN  
 
CITY SKY/WX TMP DP RH WIND PRES REMARKS  
MILWAUKEE CLEAR 24 19 81 CALM 30.35S  
KENOSHA* CLEAR 21 17 84 W5 30.36R WCI 15  
RACINE* CLEAR 22 19 89 W7 30.37S WCI 13  
BURLINGTON N/A 17 15 94 CALM 30.36S  
WAUKESHA CLEAR 19 16 86 CALM 30.36R  
WEST BEND CLEAR 21 19 93 W3 30.34S  

 
 
INZ001>003-010>013-019-020-051100-  
NORTHWEST INDIANA  
 
CITY SKY/WX TMP DP RH WIND PRES REMARKS  
GARY* CLEAR 29 23 79 N3 30.36S  
MICHIGAN CITY* NOT AVBL  
RENSSELAER* NOT AVBL  
VALPARAISO CLEAR 25 21 85 CALM 30.34R  

 
 
LMZ740>746-051100-  
SOUTHERN LAKE MICHIGAN  
 
STATION/POSITION TIME SKY/WX TEMP WIND PRES VSBY  
AIR DIR/SP/G  
(UTC) (F) (DEG/KT/KT) (MB) (MI)  
HARRISON CRIB 0940 34 40/ 7/ 7 N/A  
NORTHERLY ISL 1000 32 30/ 4/ 7 N/A  
CALUMET HARBOR 0930 30/ 4/ 6 1027.0S  
BURNS HARBOR 0940 31 50/ 3/ 4 1028.1R  
MICHIGAN CITY 0940 31 40/ 8/ 9 N/A  

 
 
ABBREVIATIONS USED IN REMARKS  
TC - TEMPERATURE IN CELSIUS  
WCI - WIND CHILL INDEX  
HX - HEAT INDEX  
VSB - VISIBILITY  

 
 
 
CLICK HERE TO GO TO PREVIOUS BULLETINS.

The Nexlab IL Page
The Nexlab IN Page Main Text Page